This is the latest recevied weather packets stored in our database for station/object WX5HOT. If no packets are shown the sender has not sent any weather packets the latest 10 day(s).
| Time | Temp. | Humidity | Pressure | Rain* | Wind** | Luminosity | Snow |
|---|---|---|---|---|---|---|---|
| 1777767846 | 16.67° C | 43% | 1069 hPa | 0 mm | - | 30 W/m² | - |
| 1777767542 | 17.22° C | 42% | 1068.8 hPa | 0 mm | - | 33 W/m² | - |
| 1777767239 | 17.22° C | 41% | 1068.8 hPa | 0 mm | - | 36 W/m² | - |
| 1777766937 | 17.78° C | 41% | 1069 hPa | 0 mm | - | 40 W/m² | - |
| 1777766633 | 17.78° C | 40% | 1068.9 hPa | 0 mm | - | 45 W/m² | - |
| 1777766330 | 17.78° C | 40% | 1068.8 hPa | 0 mm | - | 46 W/m² | - |
| 1777766028 | 17.78° C | 40% | 1068.9 hPa | 0 mm | - | 49 W/m² | - |
| 1777765724 | 17.78° C | 39% | 1068.8 hPa | 0 mm | - | 54 W/m² | - |
| 1777765421 | 18.33° C | 38% | 1069.1 hPa | 0 mm | - | 54 W/m² | - |
| 1777763182 | 18.33° C | 37% | 1068.7 hPa | 0 mm | - | 238 W/m² | - |
| 1777762881 | 18.33° C | 37% | 1068.7 hPa | 0 mm | - | 238 W/m² | - |
| 1777762580 | 18.33° C | 36% | 1068.8 hPa | 0 mm | - | 238 W/m² | - |
| 1777762278 | 18.89° C | 38% | 1068.9 hPa | 0 mm | - | 239 W/m² | - |
| 1777761974 | 18.89° C | 37% | 1068.9 hPa | 0 mm | - | 287 W/m² | - |
| 1777761671 | 18.89° C | 37% | 1068.9 hPa | 0 mm | - | 307 W/m² | - |
| 1777761369 | 19.44° C | 36% | 1069 hPa | 0 mm | - | 297 W/m² | - |
| 1777761068 | 19.44° C | 35% | 1068.7 hPa | 0 mm | - | 385 W/m² | - |
| 1777760764 | 18.89° C | 36% | 1068.8 hPa | 0 mm | - | 394 W/m² | - |
| 1777760460 | 19.44° C | 37% | 1068.9 hPa | 0 mm | - | 397 W/m² | - |
| 1777760156 | 18.89° C | 36% | 1068.7 hPa | 0 mm | - | 456 W/m² | - |
| 1777759854 | 18.89° C | 35% | 1069 hPa | 0 mm | - | 458 W/m² | - |
| 1777759549 | 18.33° C | 37% | 1069 hPa | 0 mm | - | 484 W/m² | - |
| 1777759246 | 17.78° C | 37% | 1068.9 hPa | 0 mm | - | 498 W/m² | - |
| 1777758943 | 18.33° C | 36% | 1068.6 hPa | 0 mm | - | 123 W/m² | - |
| 1777758640 | 18.89° C | 36% | 1068.7 hPa | 0 mm | - | 125 W/m² | - |
* Rain latest hour (hover to see other rain measurements)
** Current wind speed in m/s (hover to see current wind gust speed)